DW9005 Weather Reports


Display with metric or nautical units.
time (UTC)temp
F
wind
direction
speed
MPH
gust
MPH
rain 1hr
in
rain 24hr
in
rain mn
in
humidity
%
barometer
mb
20260507040020 66 282 0.0 0.0 0.00 0.00 0.00 93 1012.3
20260507034521 66 158 0.0 0.0 0.00 0.00 0.00 93 1011.4
20260507033001 66 136 0.0 0.0 0.00 0.00 0.00 93 1010.7
20260507031501 67 300 0.0 0.0 0.00 0.00 0.00 93 1013.4
20260507030043 67 138 0.0 0.0 0.00 0.00 0.00 93 1012.2
20260507024543 67 350 0.0 0.0 0.00 0.00 0.00 93 1011.9
20260507023028 67 330 0.0 0.0 0.00 0.00 0.00 93 1011.9
20260507021523 67 5 0.0 0.0 0.00 0.00 0.00 93 1012.0
20260507020003 67 201 0.0 0.0 0.00 0.00 0.00 93 1012.2
20260507014502 69 304 0.0 0.0 0.00 0.00 0.00 92 1012.1
20260507013044 72 335 0.0 0.0 0.00 0.00 0.00 93 1011.1
20260507011554 72 171 0.0 0.0 0.00 0.00 0.00 93 1010.9
20260507010028 72 157 0.0 0.0 0.00 0.00 0.00 93 1010.7
20260507004526 72 174 0.0 0.0 0.00 0.00 0.00 93 1010.8
20260507003012 73 174 0.0 0.0 0.00 0.00 0.00 93 1011.2
20260507001508 73 217 0.0 0.0 0.00 0.00 0.00 93 1011.0
20260507000057 73 166 0.0 0.0 0.00 0.00 0.00 93 1010.7
20260506234548 73 165 0.0 0.0 0.00 0.00 0.00 93 1011.3
20260506233033 73 235 0.0 0.0 0.00 0.00 0.00 93 1011.2
20260506231535 73 171 0.0 0.0 0.00 0.00 0.00 92 1011.1
20260506230012 73 176 0.0 0.0 0.00 0.00 0.00 92 1011.5
20260506224522 73 167 0.0 0.0 0.00 0.00 0.00 92 1011.3
20260506223054 73 188 0.0 0.0 0.00 0.00 0.00 92 1011.1
20260506221553 73 174 0.0 0.0 0.00 0.00 0.00 92 1011.3
20260506220053 73 190 0.0 0.0 0.00 0.00 0.00 91 1011.5
20260506214544 74 157 0.0 0.0 0.00 0.00 0.00 91 1011.3
20260506213040 74 159 0.0 0.0 0.00 0.00 0.00 89 1011.3
20260506211540 75 173 0.0 0.0 0.00 0.00 0.00 87 1011.3
20260506210039 76 183 0.0 0.0 0.00 0.00 0.00 85 1011.2
20260506204537 77 188 0.0 0.0 0.00 0.00 0.00 83 1011.2
20260506203101 77 163 0.0 0.0 0.00 0.00 0.00 83 1011.6
20260506201536 77 211 0.0 0.0 0.00 0.00 0.00 82 1011.7
20260506200019 76 160 0.0 0.0 0.00 0.00 0.00 83 1011.9
20260506194518 75 184 0.0 0.0 0.00 0.00 0.00 85 1012.3
20260506193101 76 167 0.0 0.0 0.00 0.00 0.00 83 1012.9
20260506191605 75 194 0.0 0.0 0.00 0.00 0.00 83 1012.9
20260506190048 76 176 0.0 0.0 0.00 0.00 0.00 83 1013.1
20260506184551 76 90 0.0 0.0 0.00 0.00 0.00 82 1013.3
20260506183023 76 165 0.0 0.0 0.00 0.00 0.00 81 1013.3
20260506181522 76 157 0.0 0.0 0.00 0.00 0.00 80 1013.3
20260506180012 77 184 0.0 0.0 0.00 0.00 0.00 80 1013.3
20260506174515 76 167 0.0 0.0 0.00 0.00 0.00 81 1013.3
20260506173010 76 213 0.0 0.0 0.00 0.00 0.00 80 1013.5
20260506171515 77 175 0.0 0.0 0.00 0.00 0.00 78 1013.3
20260506170011 77 192 0.0 0.0 0.00 0.00 0.00 77 1013.3
20260506164513 77 248 0.0 0.0 0.00 0.00 0.00 77 1013.3
20260506163012 77 163 0.0 0.0 0.00 0.00 0.00 77 1013.4
20260506161506 77 167 0.0 0.0 0.00 0.00 0.00 78 1013.3
20260506160050 76 161 0.0 0.0 0.00 0.00 0.00 78 1013.5
20260506154551 76 163 0.0 0.0 0.00 0.00 0.00 79 1013.7
20260506153028 75 192 0.0 0.0 0.00 0.00 0.00 80 1013.8
20260506151526 74 138 0.0 0.0 0.00 0.00 0.00 82 1013.9
20260506150004 73 129 0.0 0.0 0.00 0.00 0.00 82 1014.1
20260506144501 73 174 0.0 0.0 0.00 0.00 0.00 82 1014.2
20260506143044 73 292 0.0 0.0 0.00 0.00 0.00 83 1014.1
20260506141543 72 80 0.0 0.0 0.00 0.00 0.00 84 1014.0
20260506140029 71 200 0.0 0.0 0.00 0.00 0.00 86 1014.0
20260506134521 70 182 0.0 0.0 0.00 0.00 0.00 88 1014.2
20260506133004 69 311 0.0 0.0 0.00 0.00 0.00 88 1014.2
20260506131503 69 59 0.0 0.0 0.00 0.00 0.00 88 1014.5
20260506130046 69 198 0.0 0.0 0.00 0.00 0.00 89 1014.2
20260506124546 68 152 0.0 0.0 0.00 0.00 0.00 89 1014.0
20260506123022 0 0.0 0.0 0.00 0.00 0.00 1013.8
20260506121517 0 0.0 0.0 0.00 0.00 0.00 1013.7
20260506120056 0 0.0 0.0 0.00 0.00 0.00 1013.2
20260506114553 0 0.0 0.0 0.00 0.00 0.00 1013.2
20260506113030 0 0.0 0.0 0.00 0.00 0.00 1013.0
20260506111530 0 0.0 0.0 0.00 0.00 0.00 1012.8
20260506110007 0 0.0 0.0 0.00 0.00 0.00 1012.6
20260506104609 0 0.0 0.0 0.00 0.00 0.00 1012.3
20260506103039 0 0.0 0.0 0.00 0.00 0.00 1012.2
20260506101534 0 0.0 0.0 0.00 0.00 0.00 1012.0
20260506100013 0 0.0 0.0 0.00 0.00 0.00 1011.8
20260506094508 0 0.0 0.0 0.00 0.00 0.00 1011.9
20260506093105 68 168 0.0 0.0 0.00 0.00 0.00 85 1011.6
20260506091553 68 212 0.0 0.0 0.00 0.00 0.00 85 1011.7
20260506090104 68 175 0.0 0.0 0.00 0.00 0.00 84 1011.4
20260506084603 68 144 0.0 0.0 0.00 0.00 0.00 84 1011.5
20260506083053 68 211 0.0 0.0 0.00 0.00 0.00 83 1011.3
20260506081549 68 312 0.0 0.0 0.00 0.00 0.00 82 1011.3
20260506073046 69 180 0.0 0.0 0.00 0.00 0.00 80 1011.3
20260506071526 69 186 0.0 0.0 0.00 0.00 0.00 80 1011.2
20260506061507 70 140 0.0 0.0 0.00 0.00 0.00 77 1012.0
20260506044601 71 186 0.0 0.0 0.00 0.00 0.00 76 1012.0
20260506041605 71 158 0.0 0.0 0.00 0.00 0.00 75 1011.7